Flag for Canada

Past Weather in Denare Beach, Saskatchewan, Canada — Yesterday and Last 2 Weeks

Now
70 °F

Sunny.


Feels Like: 70 °F
Forecast: 71 / 59 °F
Wind: 5 mph from Southeast

Location: The Pas

Current Time: Jul 10, 2020 at 9:55:40 pm

Latest Report: Jul 10, 2020 at 9:00 pm


Visibility: 9 mi

Pressure: 29.94 "Hg

Humidity: 64%

Dew Point: 57 °F

Location of Denare BeachLocation

Past Weather in Denare Beach — Graph

°F

Denare Beach Temperature Yesterday

Maximum temperature yesterday: 70 °F (at 6:00 pm)
Minimum temperature yesterday: 63 °F (at 11:00 pm)
Average temperature yesterday: 67 °F

High & Low Weather Summary for the Past Weeks

 TemperatureHumidityPressure
High84 °F (Jul 3, 7:00 pm)100% (Jun 26, 3:00 am)30.03 "Hg (Jun 26, 3:00 am)
Low54 °F (Jun 26, 3:00 am)32% (Jul 3, 6:00 pm)29.48 "Hg (Jun 27, 5:57 pm)
Average64 °F83%29.78 "Hg
* Reported Jun 25 8:00 pm — Jul 10 8:00 pm, Denare Beach. Weather by CustomWeather, © 2020

Note: Actual official high and low records may vary slightly from our data, if they occured in-between our weather recording intervals... More about our weather records

Denare Beach Weather History for the Previous 24 Hours

Scroll right to see more
 ConditionsComfort  
Time TempWeatherWind HumidityBarometerVisibility
8:00 pm
Fri, Jul 10
75 °FSunny.6 mph44%29.93 "Hg9 mi
7:00 pm75 °FSunny.5 mph41%29.94 "Hg9 mi
6:00 pm75 °FSunny.5 mph50%29.96 "Hg9 mi
5:00 pm75 °FSunny.7 mph41%29.95 "Hg9 mi
4:00 pm73 °FPassing clouds.6 mph50%29.95 "Hg9 mi
3:00 pm72 °FPassing clouds.5 mph61%29.96 "Hg9 mi
2:00 pm70 °FCloudy.6 mph64%29.97 "Hg9 mi
1:00 pm70 °FPartly sunny.5 mph64%29.97 "Hg9 mi
12:00 pm66 °FPassing clouds.6 mph78%29.96 "Hg9 mi
11:00 am66 °FBroken clouds.2 mph78%29.96 "Hg7 mi
10:00 am63 °FScattered clouds.6 mph83%29.95 "Hg9 mi
9:00 am63 °FSunny.3 mph83%29.95 "Hg9 mi
8:00 am61 °FPassing clouds.5 mph88%29.94 "Hg9 mi
7:00 am59 °FSunny.5 mph94%29.93 "Hg9 mi
6:00 am57 °FPartly sunny.2 mph94%29.92 "Hg9 mi
5:00 am57 °FPassing clouds.5 mph94%29.90 "Hg9 mi
4:00 am59 °FClear.6 mph88%29.90 "Hg9 mi
3:00 am59 °FClear.5 mph88%29.89 "Hg9 mi
2:00 am61 °FClear.7 mph83%29.88 "Hg9 mi
1:00 am59 °FPassing clouds.6 mph82%29.88 "Hg9 mi
12:00 am61 °FOvercast.6 mph83%29.87 "Hg9 mi
11:00 pm
Thu, Jul 9
63 °FClear.7 mph73%29.84 "Hg9 mi
10:00 pm64 °FSunny.10 mph68%29.83 "Hg9 mi
9:00 pm66 °FSunny.12 mph64%29.80 "Hg9 mi
Weather by CustomWeather, © 2020

See weather overview